Theta_e
292 285 281 284 285 287 284 283 281 284 288 286 285 286 287 288 289 288 288 290 292 294 296 298 299 299 300 300 301 301 301 301 302 305 306 313 322 326 326 326 326 329 329 328
285 281 287 290 290 287 286 282 281 285 288 287 285 285 288 288 288 288 289 289 291 293 294 296 297 297 298 299 300 300 301 303 302 304 307 311 322 326 326 327 327 327 329 329
283 286 291 289 287 286 284 282 281 282 287 287 284 282 285 287 289 290 290 290 291 292 294 295 295 296 297 297 296 298 301 304 303 304 306 309 321 325 325 325 326 328 328 328
286 289 288 286 285 287 282 287 287 286 282 277 284 271 282 284 286 288 287 289 289 292 294 294 294 294 294 295 296 297 301 311 305 304 305 307 317 320 324 325 327 327 328 327
283 285 285 285 286 288 285 288 286 285 282 278 280 274 279 284 282 285 287 288 289 291 293 293 293 294 294 295 294 296 302 309 305 305 307 309 318 322 324 324 323 322 318 319
286 291 289 287 289 289 290 287 285 284 282 273 280 275 271 277 281 284 286 287 288 290 292 293 293 294 294 294 293 295 299 304 309 307 309 311 320 321 317 314 313 312 312 312
283 285 288 291 286 288 287 281 273 271 272 274 281 275 277 284 285 285 286 286 286 288 291 291 291 291 293 293 291 293 297 298 304 310 312 314 316 314 312 311 311 309 309 308
277 275 285 289 286 284 284 282 273 266 271 275 280 274 280 286 287 288 288 287 287 287 290 290 290 291 292 291 291 292 294 295 297 298 303 308 309 308 308 308 307 307 306 305
278 278 287 289 289 288 283 280 285 278 269 273 275 280 285 286 285 286 286 286 285 286 288 289 290 291 292 292 293 292 293 294 295 296 296 298 301 300 301 302 303 303 303 303
284 276 283 287 289 288 286 287 278 277 266 266 274 276 276 280 282 284 284 283 284 285 286 288 289 290 292 292 293 293 293 292 294 294 295 295 295 296 296 296 296 296 297 297
284 280 280 284 282 282 282 281 282 281 278 274 271 273 281 282 283 282 284 284 283 284 284 287 287 289 290 291 292 292 292 291 292 293 294 293 293 293 294 293 294 294 294 294
284 282 276 279 284 286 285 283 283 275 276 277 277 274 285 284 284 285 284 285 284 284 284 285 285 286 287 288 289 290 291 291 291 292 292 292 292 292 292 292 292 292 292 292
285 277 270 276 280 283 281 283 284 282 280 277 273 274 285 285 284 285 284 283 283 283 283 284 284 285 285 286 287 287 288 289 290 290 290 290 290 291 291 291 291 292 291 290
288 281 278 275 279 281 279 281 282 281 276 276 276 276 280 282 282 283 283 282 282 282 283 283 283 283 284 285 285 286 286 288 289 289 289 289 289 290 290 290 291 291 291 290
282 270 279 279 279 280 281 281 281 279 279 276 277 277 281 282 281 282 284 284 283 282 283 283 283 283 283 285 285 286 286 286 287 287 288 288 289 289 289 290 290 291 290 290
281 272 275 273 277 277 277 279 281 281 281 280 278 277 283 282 283 282 284 284 283 282 283 283 283 284 284 284 284 285 285 285 285 285 285 287 288 288 288 289 289 289 289 289
277 273 271 267 275 274 270 275 278 281 281 282 277 280 282 281 282 283 283 284 283 283 283 283 283 284 284 283 284 283 283 284 283 282 283 284 285 286 286 287 287 287 287 287
276 275 273 268 271 264 278 281 278 281 283 282 281 282 283 283 283 284 285 284 283 284 284 285 285 285 284 284 283 282 282 281 280 280 280 281 282 283 284 285 285 286 285 285
282 278 269 269 268 274 277 278 278 277 278 284 282 283 283 283 282 280 285 285 284 284 285 286 286 283 280 281 282 280 279 279 279 278 279 279 280 281 282 282 282 283 284 283
280 280 274 267 269 267 278 278 283 282 274 283 285 283 282 282 276 277 284 285 285 286 286 286 285 282 280 279 280 278 277 276 276 278 279 279 279 279 279 280 280 282 282 282
270 271 269 271 268 272 280 281 283 272 278 282 286 285 283 280 280 283 286 285 286 287 287 288 284 280 278 278 279 276 275 275 277 278 278 278 278 279 279 279 281 281 281 281
273 270 269 268 264 269 282 282 278 281 283 284 286 286 284 284 284 285 286 285 286 286 287 285 281 279 277 277 278 276 274 275 276 277 276 275 276 278 279 277 279 279 280 280
274 276 272 275 275 281 285 282 285 285 285 284 285 286 286 285 284 285 285 285 286 286 284 283 281 278 276 276 276 275 273 273 273 272 271 272 273 276 276 276 277 279 280 280
278 280 276 277 280 281 283 284 285 286 285 285 286 287 287 285 285 284 285 285 284 284 282 281 278 278 276 272 271 270 271 270 266 266 269 271 271 272 273 275 276 279 278 279
278 279 277 276 280 280 281 284 285 285 286 285 285 286 287 286 284 285 284 284 284 284 282 279 277 276 274 271 268 265 266 265 268 268 269 269 270 267 270 272 272 275 279 280
278 277 278 277 283 282 282 283 285 285 285 286 285 284 285 286 285 285 284 284 283 282 278 275 275 274 271 269 267 262 261 263 264 267 268 267 268 267 268 268 269 276 279 281
Wind_Speed
5 9 4 2 4 3 1 5 4 3 2 2 3 5 4 2 8 9 9 9 13 17 16 17 19 20 21 19 19 18 17 16 11 9 6 8 10 8 8 8 11 9 9 10
9 5 2 2 5 4 6 3 2 1 3 2 5 7 5 4 5 6 7 7 13 18 22 22 22 22 23 21 20 20 19 17 12 8 7 6 7 8 10 9 11 11 12 13
6 3 2 1 5 3 4 3 1 1 5 3 2 7 4 2 7 8 8 6 13 18 24 23 25 26 24 23 22 21 22 20 15 12 8 8 8 7 7 7 8 10 11 10
6 2 1 5 4 3 2 2 1 2 2 1 4 4 0 3 7 8 8 14 13 16 18 21 24 26 27 24 24 25 25 16 12 11 8 10 8 9 5 6 7 8 9 10
5 3 1 2 3 2 1 1 1 2 1 4 1 4 4 4 7 7 10 10 12 15 17 20 21 23 23 21 21 22 25 9 8 9 6 7 9 6 3 3 5 4 9 12
3 1 2 1 2 2 1 1 2 2 1 3 4 6 6 2 2 4 6 9 10 14 15 17 19 21 21 21 22 23 22 21 5 6 7 11 9 6 6 9 10 8 9 8
2 1 1 1 3 0 2 3 3 5 4 3 4 4 5 4 4 3 7 8 9 10 14 18 22 22 22 23 25 22 22 23 23 19 14 12 11 13 15 12 10 11 8 11
6 3 5 2 2 4 5 5 6 6 3 2 3 4 3 6 5 4 4 6 9 13 14 17 20 20 20 22 24 23 22 25 24 24 22 15 13 10 13 12 13 9 7 11
5 0 1 3 2 1 3 2 2 5 2 3 3 3 3 5 6 6 7 7 10 11 13 16 18 19 20 20 22 23 23 26 24 23 20 20 18 15 16 18 17 14 9 11
3 5 0 1 1 2 1 1 4 3 1 3 4 4 5 3 4 5 9 8 8 9 13 15 15 17 18 19 21 24 25 26 24 24 21 20 16 19 14 19 18 13 13 14
1 5 1 2 5 6 2 2 2 2 4 4 2 5 6 5 3 4 4 6 6 7 10 11 12 14 15 16 19 22 24 26 25 21 20 21 19 16 20 17 16 16 14 16
1 5 4 6 2 1 1 4 6 5 4 2 2 6 6 7 6 6 4 5 5 6 7 7 9 11 13 15 15 15 16 20 18 16 15 15 16 19 18 17 17 17 15 15
2 1 3 4 3 2 4 5 3 5 2 5 6 5 5 7 6 5 5 5 5 5 7 7 9 10 11 13 14 14 15 14 11 11 14 16 17 17 15 16 16 15 13 14
3 1 4 5 3 4 5 6 7 6 4 4 6 4 6 7 7 5 5 5 5 5 6 7 7 8 8 9 11 12 13 12 10 10 12 13 12 12 11 12 13 13 13 13
3 4 1 1 1 1 3 5 10 12 5 7 3 7 9 11 9 8 7 6 5 5 6 6 6 6 7 8 8 10 10 11 11 13 14 13 11 10 9 9 8 9 11 10
1 1 2 3 3 1 4 7 10 13 11 9 5 5 6 7 8 7 8 7 6 5 6 6 5 6 6 7 7 7 8 9 8 10 11 10 10 10 12 12 11 11 10 9
6 6 3 5 3 3 8 16 18 10 7 14 12 8 9 6 9 9 8 7 7 6 7 6 6 5 5 6 5 7 7 6 9 9 10 11 10 11 10 8 8 8 8 7
6 5 3 3 2 2 6 1 4 20 11 10 5 9 14 11 7 7 7 8 8 8 8 6 6 5 5 6 6 6 7 8 8 9 9 9 9 8 8 8 8 6 5 7
5 4 2 5 4 7 4 6 8 10 13 18 11 10 9 10 6 2 6 7 7 6 7 6 6 5 5 7 6 7 8 8 9 10 9 9 8 8 8 8 7 5 5 5
4 1 4 2 5 8 4 3 5 5 7 17 19 18 16 9 5 5 9 9 7 7 7 7 7 6 6 5 5 6 6 6 8 7 7 7 7 7 7 6 6 5 4 4
3 1 6 4 4 10 7 6 6 6 6 9 20 20 17 8 5 8 13 8 7 6 8 6 7 7 4 3 4 5 4 5 4 4 4 5 5 5 6 5 4 4 4 4
9 9 5 3 2 11 9 5 10 4 4 6 15 16 15 8 11 15 13 11 9 7 8 7 6 5 4 4 4 4 5 4 5 5 5 6 6 6 5 6 5 5 4 5
6 10 9 12 11 2 13 2 7 3 3 4 13 13 15 14 8 13 11 11 9 7 7 6 6 7 5 5 4 5 1 3 4 5 5 5 6 6 6 4 4 4 4 3
4 4 3 3 7 8 9 5 4 5 4 5 9 16 16 12 15 11 11 9 8 7 6 6 7 6 6 4 4 4 3 3 4 4 3 3 4 5 5 4 3 3 3 3
6 10 8 6 6 3 9 12 6 6 7 8 10 11 12 15 13 13 10 9 8 7 6 6 6 5 6 6 5 4 3 2 3 3 2 2 2 3 3 3 1 1 3 5
7 9 9 8 10 5 5 14 11 10 10 12 12 8 8 11 15 11 10 8 9 7 4 3 4 5 5 6 6 3 2 3 4 3 2 2 2 3 3 3 4 6 6 5
Wind_Direction
29 68 88 5 340 281 194 111 113 143 130 65 251 276 199 38 49 35 12 8 350 355 344 336 344 341 333 325 316 308 297 285 280 276 264 260 236 217 206 197 200 216 193 198
26 98 155 309 312 38 30 92 37 285 146 128 302 287 266 55 39 46 20 349 356 355 349 347 346 347 340 327 322 314 299 281 264 256 258 246 234 213 212 199 202 212 208 192
113 157 155 237 42 70 27 112 98 235 315 252 297 315 125 103 42 29 23 356 2 359 349 347 344 344 339 333 331 322 306 283 255 246 260 269 249 228 202 203 200 204 199 196
86 284 185 89 82 11 194 25 34 297 52 172 101 266 70 346 22 21 7 10 353 349 355 350 344 342 343 339 335 325 315 283 238 235 233 252 242 213 207 194 201 205 204 199
213 152 170 119 131 19 206 35 312 284 331 56 280 78 261 9 357 0 3 358 353 351 3 352 345 339 338 338 340 333 337 300 234 226 210 245 230 204 184 155 151 25 56 42
119 352 70 98 116 77 101 344 291 323 103 36 222 125 294 352 285 338 347 355 345 349 3 357 350 347 342 342 352 351 348 358 239 195 228 242 217 202 103 101 95 74 59 70
6 84 166 165 124 349 103 81 350 355 7 221 176 49 242 98 57 56 7 341 336 349 9 4 359 354 349 353 360 357 360 18 22 42 43 65 89 98 96 93 84 84 72 56
151 282 178 190 215 166 181 146 157 209 215 256 330 238 195 132 82 49 15 356 357 6 13 10 3 359 354 355 10 5 16 27 31 37 33 40 55 70 78 82 85 56 52 67
131 42 93 60 351 124 180 166 152 105 10 41 217 76 159 85 45 16 11 18 10 3 13 14 7 6 1 5 17 17 24 36 32 40 42 41 44 45 60 60 61 64 37 56
173 92 10 205 341 286 198 150 79 7 109 275 280 211 199 27 4 12 9 21 10 9 17 16 10 11 13 15 21 27 26 40 38 39 39 45 39 46 59 59 62 63 49 52
178 109 208 79 204 180 165 185 166 135 166 184 263 255 175 155 136 84 12 37 21 20 26 15 4 5 5 17 27 31 34 36 35 31 36 37 39 44 51 51 54 55 46 48
195 118 162 209 160 178 240 208 161 138 212 221 128 273 150 139 139 117 60 58 38 38 34 14 2 3 11 10 16 24 34 45 36 31 31 43 45 47 48 50 47 49 45 44
179 245 72 345 356 347 227 204 199 117 78 206 145 249 188 130 115 119 107 79 62 49 45 29 9 15 11 13 13 18 21 31 34 42 44 37 38 46 43 49 50 49 47 47
79 162 190 194 140 127 207 200 187 146 157 197 223 164 182 172 151 135 115 112 94 76 55 46 26 9 19 15 17 19 18 16 20 31 45 48 44 44 49 54 54 51 49 49
101 177 247 135 56 9 236 203 193 203 195 183 238 185 181 181 166 166 154 136 110 91 71 56 38 11 7 24 20 21 24 19 16 29 33 30 26 30 32 57 58 67 63 57
80 234 92 291 317 301 270 250 213 219 233 263 220 251 173 139 141 144 150 146 137 116 100 87 52 40 26 17 18 26 26 22 23 31 26 16 23 31 30 29 31 39 40 51
146 135 106 264 351 355 297 220 206 201 202 211 211 197 157 158 165 160 161 160 156 145 122 109 93 60 34 23 23 33 26 20 33 32 22 17 14 23 23 16 35 39 39 48
141 138 118 195 28 275 243 129 212 214 208 202 150 162 172 162 153 146 159 155 161 154 130 111 94 63 34 14 23 25 25 28 30 31 24 15 13 22 17 20 20 31 27 42
159 143 143 159 199 295 253 203 169 176 248 203 171 152 134 120 94 144 176 159 165 159 131 120 98 77 43 23 16 28 28 24 23 17 14 10 9 11 8 13 5 14 45 49
167 173 139 151 179 215 251 185 174 143 285 189 171 156 146 141 150 224 172 142 148 144 130 131 119 95 69 14 48 66 43 31 22 7 5 3 6 16 11 357 358 1 39 52
136 163 183 196 221 284 232 170 164 102 245 167 169 158 151 165 174 144 144 138 150 159 136 129 97 104 100 51 78 70 54 45 1 354 2 10 7 8 4 354 4 3 45 51
163 161 184 114 103 265 154 100 178 217 353 147 150 155 147 129 121 138 146 145 151 155 130 124 120 121 112 80 95 80 54 2 358 5 17 11 3 3 2 2 2 12 42 47
212 185 179 185 203 221 190 154 204 121 143 141 139 150 139 138 137 147 153 151 165 151 137 134 141 137 125 100 82 101 111 31 24 25 16 7 6 5 359 4 16 18 19 28
244 161 201 111 224 217 215 226 195 175 182 142 137 143 145 145 146 143 147 156 155 155 159 152 148 151 141 134 108 106 68 36 64 49 26 4 19 0 358 356 355 7 9 1
180 149 174 265 270 293 240 224 191 159 144 121 132 145 147 143 151 150 150 160 158 175 174 163 160 157 168 152 112 90 74 74 76 91 45 17 10 4 353 343 296 316 344 316
185 170 180 210 209 184 227 204 173 166 168 156 142 128 138 151 154 149 151 164 175 187 153 142 163 158 156 125 116 148 142 101 112 88 32 9 9 3 357 350 337 354 2 330